Location: Unspecified
(0.0000°N, 0.0000°E)
Time: 04:07:22
(UTC+00:00)

Resurs 1-3 - Visible Passes

Search period start: 14 May 2026 00:00
Search period end: 24 May 2026 00:00
Orbit: 612 x 615 km, 97.7° (Epoch: 13 May)

Date Brightness Start Highest point End Pass type
(mag) Time Alt. Az. Time Alt. Az. Time Alt. Az.
14 May 4.2 18:56:58 10° S 19:01:11 57° WSW 19:05:22 10° NNW visible
15 May 5.2 19:12:30 10° SSW 19:16:22 33° WSW 19:20:14 10° NW visible
16 May 6.0 19:28:22 10° SSW 19:31:33 20° WSW 19:34:44 10° NW visible
17 May 6.5 19:44:55 10° SW 19:46:44 12° WSW 19:48:32 10° WNW visible
18 May 4.0 18:22:08 10° SSE 18:26:12 42° ENE 18:30:15 10° N visible
19 May 3.5 18:37:07 10° SSE 18:41:24 73° ENE 18:45:39 10° N visible
20 May 3.9 18:52:20 10° S 18:56:35 66° WSW 19:00:50 10° NNW visible
21 May 4.9 19:07:47 10° S 19:11:46 38° WSW 19:15:45 10° NNW visible
22 May 5.8 19:23:32 10° SSW 19:26:57 23° WSW 19:30:21 10° NW visible
23 May 6.4 19:39:50 10° SW 19:42:08 14° WSW 19:44:26 10° WNW visible
